Renton, WA

1:08 PM PDT on March 27, 2017 (GMT -0700)
Renton Municipal

Weather History for KRNT - November, 2014

Change the Weather History Date:

Sunday, November 23, 2014

  Actual Average Record
Temperature  
Mean Temperature 49 °F -  
Max Temperature 55 °F 48 °F 57 °F (1997)
Min Temperature 43 °F 38 °F 16 °F (2010)
Degree Days  
Heating Degree Days 16    
Moisture  
Dew Point 44 °F    
Average Humidity 83    
Maximum Humidity 96    
Minimum Humidity 71    
Precipitation  
Precipitation 0.47 in - - ()
Sea Level Pressure  
Sea Level Pressure 30.18 in    
Wind  
Wind Speed 8 mph (SSE)    
Max Wind Speed 14 mph    
Max Gust Speed 24 mph    
Visibility 9 miles    
Events Rain    
Averages and records for this station are not official NWS values.
T = Trace of Precipitation, MM = Missing Value Source: NWS Daily Summary

Daily Weather History Graph

Daily Weather History Graph

Search for Another Location

Airport or City:

Trip Planner

Search our weather history database for the weather conditions in past years. The results will help you decide how hot, cold, wet, or windy it might be!

Date:

Astronomy

Nov. 23, 2014 Rise Set
Actual Time 7:25 AM PST 4:24 PM PST
Civil Twilight 6:51 AM PST 4:59 PM PST
Nautical Twilight 6:13 AM PST 5:37 PM PST
Astronomical Twilight 5:36 AM PST 6:13 PM PST
Moon 8:25 AM PST (11/23) 5:53 PM PST (11/23)
Length of Visible Light 10h 08m
Length of Day
8h 59m
New Moon, 2% of the Moon is Illuminated
Nov 23
New Moon
Nov 29
First Quarter
Dec 6
Full
Dec 14
Last Quarter
Dec 21
New

Hourly Weather History & Observations

Time (PST) Temp. Windchill Dew Point Humidity Pressure Visibility Wind Dir Wind Speed Gust Speed Precip Events Conditions
12:53 AM 46.9 °F - 43.0 °F 86% 30.17 in 10.0 mi SSE 8.1 mph - N/A   Mostly Cloudy
1:53 AM 48.0 °F - 44.1 °F 86% 30.18 in 7.0 mi SE 6.9 mph - 0.00 in Rain Light Rain
2:53 AM 46.9 °F - 44.1 °F 90% 30.18 in 5.0 mi Variable 5.8 mph - 0.03 in Rain Rain
3:53 AM 48.0 °F - 44.1 °F 86% 30.16 in 10.0 mi SSE 6.9 mph - 0.01 in   Overcast
4:22 AM 48.0 °F - 43.0 °F 83% 30.13 in 10.0 mi South 8.1 mph - 0.02 in   Overcast
4:31 AM 48.0 °F - 43.0 °F 83% 30.13 in 6.0 mi SSE 13.8 mph - 0.03 in Rain Light Rain
4:53 AM 48.0 °F - 43.0 °F 83% 30.13 in 10.0 mi SSE 13.8 mph - 0.03 in   Overcast
5:36 AM 48.9 °F - 42.1 °F 77% 30.11 in 10.0 mi SSE 9.2 mph - N/A   Overcast
5:53 AM 50.0 °F - 43.0 °F 77% 30.12 in 10.0 mi South 11.5 mph - N/A   Overcast
6:28 AM 50.0 °F - 42.1 °F 74% 30.08 in 10.0 mi SSE 11.5 mph 24.2 mph 0.00 in   Overcast
6:53 AM 48.0 °F - 43.0 °F 83% 30.11 in 7.0 mi South 9.2 mph - 0.02 in Rain Light Rain
7:17 AM 48.9 °F - 43.0 °F 80% 30.09 in 2.5 mi South 12.7 mph 19.6 mph 0.09 in Rain Rain
7:53 AM 48.9 °F - 45.0 °F 86% 30.11 in 3.0 mi South 13.8 mph 20.7 mph 0.29 in Rain Rain
8:53 AM 48.9 °F - 46.0 °F 90% 30.09 in 10.0 mi SSE 13.8 mph - 0.09 in   Overcast
9:53 AM 50.0 °F - 45.0 °F 83% 30.12 in 10.0 mi South 6.9 mph - N/A   Overcast
10:03 AM 50.0 °F - 45.0 °F 83% 30.09 in 9.0 mi SSE 11.5 mph - 0.00 in Rain Light Rain
10:53 AM 51.1 °F - 46.0 °F 83% 30.13 in 10.0 mi South 9.2 mph - 0.00 in   Overcast
11:53 AM 52.0 °F - 46.9 °F 83% 30.14 in 10.0 mi South 10.4 mph - N/A   Overcast
12:53 PM 54.0 °F - 46.9 °F 77% 30.14 in 10.0 mi South 12.7 mph 20.7 mph N/A   Mostly Cloudy
1:53 PM 54.0 °F - 46.0 °F 75% 30.17 in 10.0 mi SSW 6.9 mph - N/A   Mostly Cloudy
2:00 PM 55.0 °F - 46.0 °F 72% 30.15 in 10.0 mi South 5.8 mph - N/A   Clear
2:53 PM 54.0 °F - 45.0 °F 72% 30.18 in 10.0 mi South 8.1 mph - N/A   Scattered Clouds
3:53 PM 52.0 °F - 43.0 °F 71% 30.20 in 10.0 mi South 5.8 mph - N/A   Clear
4:53 PM 48.9 °F - 43.0 °F 80% 30.22 in 10.0 mi Calm Calm - N/A   Clear
5:53 PM 46.9 °F - 42.1 °F 83% 30.25 in 10.0 mi Calm Calm - N/A   Clear
6:53 PM 44.1 °F 42.5 °F 42.1 °F 93% 30.28 in 10.0 mi East 3.5 mph - N/A   Clear
7:53 PM 44.1 °F 40.8 °F 43.0 °F 96% 30.31 in 10.0 mi SSE 5.8 mph - N/A   Clear
8:53 PM 44.1 °F 42.5 °F 42.1 °F 93% 30.32 in 10.0 mi ESE 3.5 mph - N/A   Clear
9:53 PM 43.0 °F 41.3 °F 41.0 °F 93% 30.33 in 10.0 mi SE 3.5 mph - N/A   Clear
10:53 PM 44.1 °F - 41.0 °F 89% 30.36 in 10.0 mi Calm Calm - N/A   Mostly Cloudy
11:53 PM 43.0 °F 41.3 °F 41.0 °F 93% 30.38 in 10.0 mi South 3.5 mph - N/A   Clear